This demonstration page uses our WeatherBlox Daily Observations layout. Learn more.

Left ArrowRight Arrow

44.8408, -93.29828

Hourly Observations for February 15, 2022

Temp ( °F °C ) Dew Point ( °F °C ) Humidity (%) Winds ( mph kmh ) Pressure ( in mb ) Visibility ( mi km ) Precip ( " mm )
12:53 am 00:53 Mostly Cloudy 12 -11.1 1 -17.2 61 61 E 5 7 30.42 1030 10 16 0.00 0.00
1:53 am 01:53 Cloudy 12 -11.1 2 -16.7 64 64 SE 5 7 30.41 1030 10 16 0.00 0.00
2:53 am 02:53 Cloudy 12 -11.1 2 -16.7 64 64 ESE 7 11 30.40 1029 10 16 0.00 0.00
3:53 am 03:53 Cloudy 13 -10.6 2 -16.7 61 61 ESE 9 15 30.36 1028 10 16 0.00 0.00
4:53 am 04:53 Cloudy 13 -10.6 2 -16.7 61 61 ESE 8 13 30.36 1028 10 16 0.00 0.00
5:53 am 05:53 Cloudy 13 -10.6 3 -16.1 64 64 ESE 13 20 30.33 1027 10 16 0.00 0.00
6:53 am 06:53 Cloudy 13 -10.6 3 -16.1 64 64 ESE 15 24 30.30 1026 10 16 0.00 0.00
7:53 am 07:53 Cloudy 13 -10.6 4 -15.6 67 67 SE 12 19 30.30 1026 10 16 0.00 0.00
8:53 am 08:53 Cloudy 15 -9.4 6 -14.4 67 67 SE 14 22 30.27 1025 10 16 0.00 0.00
9:53 am 09:53 Cloudy 17 -8.3 8 -13.3 68 68 SE 12 19 30.24 1024 10 16 0.00 0.00
10:53 am 10:53 Cloudy 19 -7.2 9 -12.8 65 65 SE 15 24 30.20 1023 10 16 0.00 0.00
11:53 am 11:53 Cloudy 22 -5.6 11 -11.7 63 63 SE 20 31 30.14 1021 10 16 0.00 0.00
12:33 pm 12:33 Cloudy 23 -5 13 -10.6 65 65 SE 22 35 30.10 1019 10 16 0.00 0.00
12:53 pm 12:53 Mostly Cloudy 25 -3.9 14 -10 63 63 ESE 18 30 30.05 1018 10 16 0.00 0.00
1:31 pm 13:31 Mostly Cloudy 26 -3.3 15 -9.4 63 63 ESE 18 30 30.01 1016 10 16 0.00 0.00
1:53 pm 13:53 Mostly Cloudy 27 -2.8 15 -9.4 61 61 SE 21 33 29.98 1015 10 16 0.00 0.00
2:27 pm 14:27 Mostly Cloudy 28 -2.2 16 -8.9 60 60 SE 23 37 29.93 1014 10 16 0.00 0.00
2:53 pm 14:53 Mostly Cloudy 28 -2.2 17 -8.3 63 63 ESE 18 30 29.90 1013 10 16 0.00 0.00
3:53 pm 15:53 Mostly Cloudy 30 -1.1 19 -7.2 64 64 SE 18 30 29.85 1011 9 14 0.00 0.00
4:53 pm 16:53 Mostly Cloudy 31 -0.6 21 -6.1 67 67 SE 13 20 29.83 1010 9 14 0.00 0.00
5:53 pm 17:53 Mostly Cloudy 31 -0.6 21 -6.1 67 67 SE 5 7 29.84 1011 8 13 0.00 0.00
6:53 pm 18:53 Mostly Cloudy 30 -1.1 21 -6.1 69 69 E 7 11 29.83 1010 9 14 0.00 0.00
7:53 pm 19:53 Mostly Cloudy 29 -1.7 20 -6.7 69 69 E 7 11 29.80 1009 9 14 0.00 0.00
8:53 pm 20:53 Mostly Cloudy 29 -1.7 21 -6.1 72 72 ESE 7 11 29.77 1008 9 14 0.00 0.00
9:53 pm 21:53 Mostly Cloudy 29 -1.7 21 -6.1 72 72 ESE 6 9 29.74 1007 9 14 0.00 0.00
10:53 pm 22:53 Mostly Cloudy 27 -2.8 21 -6.1 78 78 ESE 3 6 29.71 1006 9 14 0.00 0.00
11:53 pm 23:53 Mostly Cloudy 27 -2.8 21 -6.1 78 78 Calm 29.69 1006 8 13 0.00 0.00

Powered by AerisWeather